F4GCF Weather Reports


Display with metric or nautical units.
time (UTC)temp
F
wind
direction
speed
MPH
gust
MPH
rain 1hr
in
rain 24hr
in
rain mn
in
humidity
%
barometer
mb
20260507150928 67 45 1.0 2.0 0.00 0.00 0.00 65 1013.0
20260507150431 67 61 2.0 5.0 0.00 0.00 0.00 65 1013.0
20260507145927 67 110 3.0 6.0 0.00 0.00 0.00 65 1013.0
20260507145427 66 131 2.0 5.0 0.00 0.00 0.00 65 1013.0
20260507144927 67 93 2.0 2.0 0.00 0.00 0.00 65 1013.0
20260507144429 67 110 5.0 6.0 0.00 0.00 0.00 65 1013.0
20260507143929 67 137 3.0 6.0 0.00 0.00 0.00 65 1013.0
20260507143428 67 90 1.0 2.0 0.00 0.00 0.00 65 1013.0
20260507142928 67 93 5.0 5.0 0.00 0.00 0.00 65 1013.0
20260507142428 67 99 5.0 7.0 0.00 0.00 0.00 65 1013.0
20260507141928 67 116 3.0 6.0 0.00 0.00 0.00 65 1013.0
20260507141427 67 104 3.0 5.0 0.00 0.00 0.00 65 1013.0
20260507140927 67 99 3.0 5.0 0.00 0.00 0.00 66 1013.0
20260507140429 67 79 3.0 6.0 0.00 0.00 0.00 66 1013.0
20260507135929 66 107 2.0 5.0 0.00 0.00 0.00 66 1013.0
20260507135428 66 106 2.0 5.0 0.00 0.00 0.00 66 1013.0
20260507134928 66 114 2.0 5.0 0.00 0.00 0.00 66 1013.0
20260507134428 66 156 3.0 5.0 0.00 0.00 0.00 66 1013.0
20260507133929 66 123 3.0 5.0 0.00 0.00 0.00 66 1013.0
20260507133428 66 124 3.0 2.0 0.00 0.00 0.00 66 1013.0
20260507132927 66 70 2.0 5.0 0.00 0.00 0.00 66 1012.0
20260507132427 66 128 3.0 6.0 0.00 0.00 0.00 66 1012.0
20260507131927 66 92 3.0 6.0 0.00 0.00 0.00 66 1012.0
20260507131428 66 58 3.0 5.0 0.00 0.00 0.00 66 1013.0
20260507130927 66 108 3.0 6.0 0.00 0.00 0.00 66 1013.0
20260507130427 66 68 2.0 3.0 0.00 0.00 0.00 66 1013.0
20260507125928 66 112 3.0 6.0 0.00 0.00 0.00 66 1013.0
20260507125512 66 120 3.0 7.0 0.00 0.00 0.00 66 1013.0
20260507125429 66 120 3.0 7.0 0.00 0.00 0.00 66 1013.0
20260507124929 66 339 3.0 3.0 0.00 0.00 0.00 66 1013.0
20260507124428 66 4 2.0 6.0 0.00 0.00 0.00 67 1013.0
20260507123928 66 112 2.0 6.0 0.00 0.00 0.00 67 1013.0
20260507123428 66 118 3.0 3.0 0.00 0.00 0.00 67 1013.0
20260507122928 66 168 6.0 8.0 0.00 0.00 0.00 66 1014.0
20260507122428 66 32 2.0 3.0 0.00 0.00 0.00 66 1014.0
20260507121930 66 90 2.0 5.0 0.00 0.00 0.00 67 1014.0
20260507121429 66 81 1.0 2.0 0.00 0.00 0.00 67 1014.0
20260507121427 66 81 1.0 2.0 0.00 0.00 0.00 67 1014.0
20260507120927 66 126 3.0 5.0 0.00 0.00 0.00 67 1014.0
20260507120429 66 117 3.0 5.0 0.00 0.00 0.00 67 1014.0
20260507115928 65 93 1.0 2.0 0.00 0.00 0.00 67 1014.0
20260507115428 65 112 3.0 6.0 0.00 0.00 0.00 67 1014.0
20260507114928 65 105 3.0 5.0 0.00 0.00 0.00 67 1014.0
20260507114428 65 164 3.0 7.0 0.00 0.00 0.00 68 1014.0
20260507113928 65 121 2.0 5.0 0.00 0.00 0.00 67 1014.0
20260507113427 65 112 1.0 2.0 0.00 0.00 0.00 67 1014.0
20260507112928 64 112 2.0 2.0 0.00 0.00 0.00 67 1014.0
20260507112427 64 155 3.0 7.0 0.00 0.00 0.00 67 1014.0
20260507111929 64 114 2.0 5.0 0.00 0.00 0.00 67 1014.0
20260507111429 64 68 2.0 3.0 0.00 0.00 0.00 67 1013.0
20260507110928 64 292 2.0 5.0 0.00 0.00 0.00 67 1013.0
20260507110429 64 3 3.0 3.0 0.00 0.00 0.00 68 1013.0
20260507105928 64 74 2.0 6.0 0.00 0.00 0.00 68 1013.0
20260507105428 64 112 5.0 5.0 0.00 0.00 0.00 68 1013.0
20260507104928 64 0 1.0 1.0 0.00 0.00 0.00 68 1013.0
20260507104428 63 167 2.0 3.0 0.00 0.00 0.00 68 1013.0
20260507103928 63 155 7.0 8.0 0.00 0.00 0.00 68 1013.0
20260507103428 63 89 1.0 5.0 0.00 0.00 0.00 67 1013.0
20260507102928 63 69 1.0 2.0 0.00 0.00 0.00 67 1012.0
20260507102427 63 104 2.0 5.0 0.00 0.00 0.00 68 1012.0
20260507101927 63 90 1.0 1.0 0.00 0.00 0.00 68 1012.0
20260507101429 63 112 3.0 3.0 0.00 0.00 0.00 68 1012.0
20260507100928 63 47 1.0 2.0 0.00 0.00 0.00 68 1012.0
20260507100428 62 162 3.0 6.0 0.00 0.00 0.00 69 1012.0
20260507095928 62 139 2.0 5.0 0.00 0.00 0.00 68 1013.0
20260507095428 62 158 1.0 5.0 0.00 0.00 0.00 68 1013.0
20260507094928 62 112 2.0 3.0 0.00 0.00 0.00 68 1013.0
20260507094428 62 0 2.0 1.0 0.00 0.00 0.00 68 1013.0
20260507093929 62 45 2.0 2.0 0.00 0.00 0.00 68 1013.0
20260507093428 62 112 1.0 1.0 0.00 0.00 0.00 68 1013.0
20260507092927 61 127 1.0 3.0 0.00 0.00 0.00 68 1013.0
20260507092428 61 105 3.0 2.0 0.00 0.00 0.00 68 1013.0
20260507091927 61 37 2.0 2.0 0.00 0.00 0.00 68 1013.0
20260507091427 61 90 1.0 2.0 0.00 0.00 0.00 68 1013.0
20260507090929 61 135 2.0 3.0 0.00 0.00 0.00 68 1013.0
20260507090428 61 158 1.0 2.0 0.00 0.00 0.00 69 1013.0
20260507085928 61 159 2.0 2.0 0.00 0.00 0.00 69 1013.0
20260507085428 60 171 1.0 3.0 0.00 0.00 0.00 69 1013.0
20260507084928 60 135 1.0 0.0 0.00 0.00 0.00 69 1013.0
20260507084428 60 135 1.0 0.0 0.00 0.00 0.00 69 1013.0
20260507083928 60 184 2.0 6.0 0.00 0.00 0.00 69 1013.0
20260507083428 60 152 1.0 3.0 0.00 0.00 0.00 69 1013.0
20260507082927 59 173 3.0 3.0 0.00 0.00 0.00 69 1012.0
20260507082427 59 181 1.0 2.0 0.00 0.00 0.00 69 1012.0
20260507081927 59 163 1.0 2.0 0.00 0.00 0.00 69 1012.0
20260507081427 59 161 1.0 2.0 0.00 0.00 0.00 69 1013.0
20260507080927 59 147 2.0 2.0 0.00 0.00 0.00 69 1013.0
20260507080427 59 133 3.0 5.0 0.00 0.00 0.00 69 1013.0
20260507075929 58 176 1.0 3.0 0.00 0.00 0.00 69 1013.0
20260507075428 58 177 2.0 5.0 0.00 0.00 0.00 70 1013.0
20260507074928 58 178 2.0 3.0 0.00 0.00 0.00 70 1013.0
20260507074428 58 165 2.0 1.0 0.00 0.00 0.00 70 1014.0
20260507073928 57 171 1.0 3.0 0.00 0.00 0.00 70 1014.0
20260507073428 57 179 0.0 2.0 0.00 0.00 0.00 70 1014.0
20260507072928 56 139 0.0 2.0 0.00 0.00 0.00 70 1015.0
20260507072428 56 165 1.0 2.0 0.00 0.00 0.00 70 1015.0
20260507071928 55 135 2.0 2.0 0.00 0.00 0.00 70 1015.0
20260507071427 55 135 1.0 2.0 0.00 0.00 0.00 71 1014.0
20260507070927 54 135 0.0 1.0 0.00 0.00 0.00 71 1014.0
20260507070427 54 135 0.0 1.0 0.00 0.00 0.00 71 1014.0
20260507065927 53 135 0.0 0.0 0.00 0.00 0.00 71 1016.0
20260507065429 53 135 1.0 1.0 0.00 0.00 0.00 71 1016.0
20260507064928 52 135 1.0 1.0 0.00 0.00 0.00 71 1016.0
20260507064428 51 197 1.0 1.0 0.00 0.00 0.00 71 1017.0
20260507063928 51 292 0.0 0.0 0.00 0.00 0.00 71 1017.0
20260507063428 50 292 0.0 1.0 0.00 0.00 0.00 71 1017.0
20260507062928 50 135 0.0 0.0 0.00 0.00 0.00 71 1018.0
20260507062428 49 135 0.0 0.0 0.00 0.00 0.00 70 1018.0
20260507061927 49 135 0.0 0.0 0.00 0.00 0.00 70 1018.0
20260507061428 48 135 0.0 0.0 0.00 0.00 0.00 70 1019.0
20260507060927 48 135 0.0 0.0 0.00 0.00 0.00 70 1019.0
20260507060427 47 135 0.0 0.0 0.00 0.00 0.00 70 1019.0
20260507055927 47 135 0.0 0.0 0.00 0.00 0.00 70 1019.0
20260507055429 47 135 0.0 0.0 0.00 0.00 0.00 70 1019.0
20260507054928 47 135 0.0 0.0 0.00 0.00 0.00 70 1019.0
20260507054428 47 135 0.0 0.0 0.00 0.00 0.00 69 1019.0
20260507053928 46 135 0.0 0.0 0.00 0.00 0.00 69 1019.0
20260507053428 46 135 0.0 0.0 0.00 0.00 0.00 69 1019.0
20260507052928 46 135 0.0 0.0 0.00 0.00 0.00 69 1019.0
20260507052428 46 135 0.0 0.0 0.00 0.00 0.00 69 1019.0
20260507051928 46 22 0.0 0.0 0.00 0.00 0.00 69 1019.0
20260507051427 46 22 0.0 0.0 0.00 0.00 0.00 69 1019.0
20260507050927 46 22 0.0 0.0 0.00 0.00 0.00 69 1019.0
20260507050427 46 22 0.0 0.0 0.00 0.00 0.00 69 1019.0
20260507045929 46 22 0.0 0.0 0.00 0.00 0.00 69 1019.0
20260507045428 46 22 1.0 1.0 0.00 0.00 0.00 69 1019.0
20260507044928 46 339 0.0 1.0 0.00 0.00 0.00 69 1019.0
20260507044428 46 248 0.0 0.0 0.00 0.00 0.00 69 1019.0
20260507043927 46 248 0.0 0.0 0.00 0.00 0.00 69 1019.0
20260507043427 46 248 0.0 0.0 0.00 0.00 0.00 69 1019.0
20260507042927 46 248 0.0 0.0 0.00 0.00 0.00 69 1019.0
20260507042429 46 248 0.0 0.0 0.00 0.00 0.00 69 1019.0
20260507041929 46 248 0.0 0.0 0.00 0.00 0.00 69 1019.0
20260507041429 46 248 0.0 0.0 0.00 0.00 0.00 69 1019.0
20260507040928 47 248 0.0 0.0 0.00 0.00 0.00 69 1019.0
20260507040428 47 248 0.0 0.0 0.00 0.00 0.00 69 1019.0
20260507035928 47 248 0.0 0.0 0.00 0.00 0.00 69 1019.0
20260507035428 47 248 0.0 0.0 0.00 0.00 0.00 69 1019.0
20260507034928 47 248 0.0 0.0 0.00 0.00 0.00 69 1019.0
20260507034428 47 248 0.0 0.0 0.00 0.00 0.00 69 1019.0
20260507033928 47 248 0.0 0.0 0.00 0.00 0.00 69 1019.0
20260507033428 47 248 0.0 0.0 0.00 0.00 0.00 69 1019.0
20260507032927 47 248 0.0 0.0 0.00 0.00 0.00 69 1018.0
20260507032427 47 248 0.0 0.0 0.00 0.00 0.00 69 1018.0
20260507031927 47 248 0.0 0.0 0.00 0.00 0.00 69 1018.0
20260507031427 47 248 0.0 0.0 0.00 0.00 0.00 69 1019.0
20260507030929 47 248 0.0 0.0 0.00 0.00 0.00 69 1019.0
20260507030429 47 248 0.0 0.0 0.00 0.00 0.00 69 1019.0
20260507025929 47 248 0.0 0.0 0.00 0.00 0.00 69 1018.0
20260507025428 47 248 0.0 0.0 0.00 0.00 0.00 68 1018.0
20260507024928 47 248 0.0 0.0 0.00 0.00 0.00 68 1018.0
20260507024428 47 248 0.0 0.0 0.00 0.00 0.00 68 1019.0
20260507023928 48 248 0.0 0.0 0.00 0.00 0.00 68 1019.0
20260507023428 48 248 0.0 0.0 0.00 0.00 0.00 68 1019.0
20260507022928 48 248 0.0 0.0 0.00 0.00 0.00 68 1019.0
20260507022428 48 248 0.0 0.0 0.00 0.00 0.00 68 1019.0
20260507021928 48 248 0.0 0.0 0.00 0.00 0.00 69 1019.0
20260507021428 48 248 0.0 0.0 0.00 0.00 0.00 68 1019.0
20260507020928 48 248 0.0 0.0 0.00 0.00 0.00 68 1019.0
20260507020428 48 248 0.0 0.0 0.00 0.00 0.00 68 1019.0
20260507015927 49 248 0.0 0.0 0.00 0.00 0.00 68 1019.0
20260507015427 49 248 0.0 0.0 0.00 0.00 0.00 69 1019.0
20260507014929 49 248 0.0 0.0 0.00 0.00 0.00 69 1019.0
20260507014430 49 292 0.0 1.0 0.00 0.00 0.00 69 1019.0
20260507013928 49 300 1.0 2.0 0.00 0.00 0.00 69 1019.0
20260507013428 49 283 1.0 2.0 0.00 0.00 0.00 68 1019.0
20260507012928 49 270 0.0 1.0 0.00 0.00 0.00 68 1019.0
20260507012428 49 270 0.0 1.0 0.00 0.00 0.00 68 1019.0
20260507011927 49 270 0.0 1.0 0.00 0.00 0.00 68 1019.0
20260507011427 49 270 1.0 1.0 0.00 0.00 0.00 68 1018.0
20260507010929 49 289 1.0 1.0 0.00 0.00 0.00 68 1018.0
20260507010429 49 270 1.0 1.0 0.00 0.00 0.00 68 1018.0
20260507005928 49 292 1.0 2.0 0.00 0.00 0.00 68 1018.0
20260507005428 49 288 2.0 2.0 0.00 0.00 0.00 68 1018.0
20260507004928 49 270 1.0 2.0 0.00 0.00 0.00 68 1018.0
20260507004428 49 292 0.0 1.0 0.00 0.00 0.00 68 1018.0
20260507003928 49 292 0.0 1.0 0.00 0.00 0.00 68 1018.0
20260507003428 49 269 1.0 1.0 0.00 0.00 0.00 68 1018.0
20260507002928 49 276 2.0 2.0 0.00 0.00 0.00 68 1019.0
20260507002427 49 282 1.0 2.0 0.00 0.00 0.00 68 1019.0
20260507001929 49 270 1.0 2.0 0.00 0.00 0.00 68 1019.0
20260507001429 50 288 1.0 2.0 0.00 0.00 0.00 68 1019.0
20260507000929 50 263 1.0 1.0 0.00 0.00 0.00 68 1019.0
20260507000428 50 248 1.0 1.0 0.00 0.00 0.00 68 1019.0
20260506235928 50 270 1.0 1.0 0.00 0.00 0.00 69 1019.0
20260506235428 50 248 1.0 1.0 0.00 0.00 0.00 69 1019.0
20260506234928 50 256 2.0 2.0 0.00 0.00 0.00 69 1019.0
20260506234428 50 282 2.0 5.0 0.00 0.00 0.00 68 1019.0
20260506233928 50 278 2.0 2.0 0.00 0.00 0.00 68 1019.0
20260506233428 50 292 1.0 2.0 0.00 0.00 0.00 68 1019.0
20260506232928 50 270 1.0 1.0 0.00 0.00 0.00 68 1019.0
20260506232428 50 292 0.0 1.0 0.00 0.00 0.00 68 1019.0
20260506231927 50 292 0.0 1.0 0.00 0.00 0.00 68 1019.0
20260506231427 50 292 0.0 0.0 0.00 0.00 0.00 68 1018.0
20260506230927 50 292 0.0 0.0 0.00 0.00 0.00 68 1018.0
20260506230427 50 270 1.0 1.0 0.00 0.00 0.00 68 1018.0
20260506225927 50 248 0.0 1.0 0.00 0.00 0.00 68 1019.0
20260506225427 51 248 0.0 1.0 0.00 0.00 0.00 68 1019.0
20260506224927 51 248 0.0 1.0 0.00 0.00 0.00 68 1019.0
20260506224427 51 225 0.0 1.0 0.00 0.00 0.00 68 1019.0
20260506223929 51 270 1.0 1.0 0.00 0.00 0.00 68 1019.0
20260506223429 51 292 1.0 1.0 0.00 0.00 0.00 68 1019.0
20260506222929 51 287 1.0 2.0 0.00 0.00 0.00 68 1019.0
20260506222428 51 277 1.0 2.0 0.00 0.00 0.00 68 1019.0
20260506221928 51 270 1.0 1.0 0.00 0.00 0.00 68 1019.0
20260506221428 51 292 0.0 1.0 0.00 0.00 0.00 68 1019.0
20260506220928 52 235 0.0 1.0 0.00 0.00 0.00 68 1019.0
20260506220428 52 270 0.0 3.0 0.00 0.00 0.00 68 1019.0
20260506215928 52 270 1.0 3.0 0.00 0.00 0.00 67 1019.0
20260506215428 52 292 1.0 1.0 0.00 0.00 0.00 67 1019.0
20260506214928 52 255 1.0 2.0 0.00 0.00 0.00 67 1019.0
20260506214428 52 315 0.0 0.0 0.00 0.00 0.00 67 1019.0
20260506213928 52 315 2.0 1.0 0.00 0.00 0.00 67 1019.0
20260506213427 53 270 1.0 1.0 0.00 0.00 0.00 67 1019.0
20260506212927 53 261 0.0 1.0 0.00 0.00 0.00 68 1019.0
20260506212427 53 286 1.0 2.0 0.00 0.00 0.00 68 1019.0
20260506211927 53 279 2.0 6.0 0.00 0.00 0.00 68 1019.0
20260506211427 53 292 1.0 2.0 0.00 0.00 0.00 68 1018.0
20260506210929 53 299 1.0 2.0 0.00 0.00 0.00 68 1018.0
20260506210428 53 296 1.0 3.0 0.00 0.00 0.00 68 1018.0
20260506205928 54 292 1.0 2.0 0.00 0.00 0.00 67 1018.0
20260506205428 54 324 2.0 2.0 0.00 0.00 0.00 68 1018.0
20260506204928 54 282 2.0 2.0 0.00 0.00 0.00 68 1018.0
20260506204428 54 259 3.0 3.0 0.00 0.00 0.00 68 1018.0
20260506203928 54 317 2.0 2.0 0.00 0.00 0.00 68 1018.0
20260506203427 54 315 2.0 3.0 0.00 0.00 0.00 68 1018.0
20260506202927 54 281 1.0 2.0 0.00 0.00 0.00 67 1017.0
20260506202427 54 248 0.0 1.0 0.00 0.00 0.00 67 1017.0
20260506201929 54 267 1.0 3.0 0.00 0.00 0.00 67 1017.0
20260506201428 54 279 1.0 2.0 0.00 0.00 0.00 67 1017.0
20260506200928 54 272 1.0 3.0 0.00 0.00 0.00 67 1017.0
20260506200427 54 262 2.0 3.0 0.00 0.00 0.00 67 1017.0
20260506195927 55 278 1.0 5.0 0.00 0.00 0.00 67 1017.0
20260506195429 55 267 2.0 3.0 0.00 0.00 0.00 67 1017.0
20260506194928 55 290 3.0 5.0 0.00 0.00 0.00 67 1017.0
20260506194428 55 267 3.0 5.0 0.00 0.00 0.00 67 1017.0
20260506193928 55 265 2.0 3.0 0.00 0.00 0.00 67 1017.0
20260506193427 55 338 2.0 2.0 0.00 0.00 0.00 67 1017.0
20260506192927 56 260 1.0 5.0 0.00 0.00 0.00 67 1017.0
20260506192428 56 278 2.0 2.0 0.00 0.00 0.00 67 1017.0
20260506191928 56 283 2.0 2.0 0.00 0.00 0.00 67 1017.0
20260506191428 56 271 2.0 5.0 0.00 0.00 0.00 67 1016.0
20260506190928 57 283 3.0 6.0 0.00 0.00 0.00 67 1016.0
20260506190428 57 292 3.0 3.0 0.00 0.00 0.00 67 1016.0
20260506185927 57 270 5.0 6.0 0.00 0.00 0.00 67 1016.0
20260506185427 57 298 2.0 3.0 0.00 0.00 0.00 67 1016.0
20260506184927 57 292 2.0 2.0 0.00 0.00 0.00 67 1016.0
20260506184427 57 279 7.0 8.0 0.00 0.00 0.00 67 1016.0
20260506183927 58 308 7.0 10.0 0.00 0.00 0.00 67 1016.0
20260506183427 58 265 3.0 9.0 0.00 0.00 0.00 67 1016.0
20260506182928 58 301 3.0 8.0 0.00 0.00 0.00 67 1015.0
20260506182428 58 289 3.0 5.0 0.00 0.00 0.00 67 1015.0
20260506181928 58 295 3.0 5.0 0.00 0.00 0.00 67 1015.0
20260506181428 58 262 6.0 8.0 0.00 0.00 0.00 67 1014.0
20260506180928 58 298 3.0 6.0 0.00 0.00 0.00 67 1014.0
20260506180428 58 259 6.0 9.0 0.00 0.00 0.00 67 1014.0
20260506175927 58 296 5.0 5.0 0.00 0.00 0.00 67 1015.0
20260506175427 59 261 7.0 9.0 0.00 0.00 0.00 67 1015.0
20260506174927 59 302 3.0 3.0 0.00 0.00 0.00 67 1015.0
20260506174427 59 275 6.0 7.0 0.00 0.00 0.00 67 1015.0
20260506173927 59 292 6.0 8.0 0.00 0.00 0.00 68 1015.0
20260506173427 59 266 7.0 10.0 0.00 0.00 0.00 68 1015.0
20260506172928 59 252 6.0 7.0 0.00 0.00 0.00 68 1015.0
20260506172428 59 292 7.0 6.0 0.00 0.00 0.00 68 1015.0
20260506171928 59 289 6.0 8.0 0.00 0.00 0.00 68 1015.0
20260506171428 59 257 6.0 9.0 0.00 0.00 0.00 68 1015.0
20260506170928 59 278 5.0 10.0 0.00 0.00 0.00 67 1015.0
20260506170427 59 255 3.0 5.0 0.00 0.00 0.00 67 1015.0
20260506165927 59 219 2.0 5.0 0.00 0.00 0.00 67 1015.0
20260506165427 59 227 2.0 6.0 0.00 0.00 0.00 67 1015.0
20260506164927 59 300 3.0 8.0 0.00 0.00 0.00 67 1015.0
20260506164428 59 277 3.0 6.0 0.00 0.00 0.00 67 1015.0
20260506163928 59 312 2.0 3.0 0.00 0.00 0.00 67 1015.0
20260506163427 59 256 5.0 8.0 0.00 0.00 0.00 67 1015.0
20260506162927 59 240 3.0 5.0 0.00 0.00 0.00 67 1015.0
20260506162427 60 265 5.0 6.0 0.00 0.00 0.00 67 1015.0
20260506161927 60 292 5.0 6.0 0.00 0.00 0.00 67 1015.0
20260506161428 60 248 5.0 6.0 0.00 0.00 0.00 67 1014.0
20260506160928 60 270 3.0 6.0 0.00 0.00 0.00 67 1014.0
20260506160427 60 270 6.0 8.0 0.00 0.00 0.00 67 1014.0
20260506155927 61 248 6.0 7.0 0.00 0.00 0.00 67 1014.0
20260506155429 61 292 7.0 6.0 0.00 0.00 0.00 67 1014.0
20260506154928 61 276 6.0 8.0 0.00 0.00 0.00 67 1014.0
20260506154428 61 293 5.0 6.0 0.00 0.00 0.00 67 1014.0
20260506153928 61 300 3.0 7.0 0.00 0.00 0.00 68 1014.0
20260506153428 61 306 7.0 8.0 0.00 0.00 0.00 67 1014.0
20260506152928 61 297 7.0 12.0 0.00 0.00 0.00 68 1014.0
20260506152428 61 264 6.0 8.0 0.00 0.00 0.00 67 1014.0
20260506151927 61 261 5.0 6.0 0.00 0.00 0.00 67 1014.0
20260506151427 61 252 3.0 9.0 0.00 0.00 0.00 67 1014.0